Covington, KY

1:48 PM EDT on May 27, 2017 (GMT -0400)
Cincinnati-Northern KY International

Weather History for KCVG - February, 2014

Change the Weather History Date:

Saturday, February 15, 2014

  Actual Average Record
Temperature  
Mean Temperature 21 °F 34 °F  
Max Temperature 28 °F 43 °F 73 °F (1945)
Min Temperature 14 °F 26 °F -1 °F (2007)
Degree Days  
Heating Degree Days 44 31  
Month to date heating degree days 608 482  
Since 1 July heating degree days 3831 3454  
Cooling Degree Days 0 0  
Month to date cooling degree days 0 0  
Year to date cooling degree days 0 0  
Moisture  
Dew Point 15 °F    
Average Humidity 69    
Maximum Humidity 84    
Minimum Humidity 53    
Precipitation  
Precipitation T in 0.10 in 2.84 in (1990)
Month to date precipitation 1.66 1.54  
Year to date precipitation 4.46 4.54  
Snow  
Snow T in 0.20 in 8.30 in (2010)
Month to date snowfall 9.6 3.9  
Since 1 July snowfall 42.8 16.0  
Snow Depth 5.00 in    
Sea Level Pressure  
Sea Level Pressure 30.02 in    
Wind  
Wind Speed 9 mph (WNW)    
Max Wind Speed 20 mph    
Max Gust Speed 23 mph    
Visibility 7 miles    
Events Snow    
T = Trace of Precipitation, MM = Missing Value Source: NWS Daily Summary

Daily Weather History Graph

Daily Weather History Graph

Search for Another Location

Airport or City:

Trip Planner

Search our weather history database for the weather conditions in past years. The results will help you decide how hot, cold, wet, or windy it might be!

Date:

Astronomy

Feb. 15, 2014 Rise Set
Actual Time 7:30 AM EST 6:15 PM EST
Civil Twilight 7:02 AM EST 6:43 PM EST
Nautical Twilight 6:31 AM EST 7:14 PM EST
Astronomical Twilight 6:00 AM EST 7:45 PM EST
Moon 7:14 PM EST (2/15) 7:29 AM EST (2/15)
Length of Visible Light 11h 40m
Length of Day
10h 45m
Full, 100% of the Moon is Illuminated
Feb 15
Full
Feb 22
Last Quarter
Mar 1
New
Mar 8
First Quarter
Mar 16
Full

Hourly Weather History & Observations

Time (EST) Temp. Windchill Dew Point Humidity Pressure Visibility Wind Dir Wind Speed Gust Speed Precip Events Conditions
12:42 AM 19.4 °F 5.0 °F 17.6 °F 93% 29.79 in 1.0 mi NNW 16.1 mph - 0.00 in Snow Light Snow
12:52 AM 19.9 °F 6.2 °F 17.1 °F 89% 29.82 in 1.0 mi NNW 15.0 mph - 0.00 in Snow Light Snow
1:52 AM 19.0 °F 6.1 °F 16.0 °F 88% 29.84 in 4.0 mi NW 12.7 mph - 0.00 in Snow Light Snow
1:56 AM 19.4 °F 6.0 °F 15.8 °F 86% 29.82 in 5.0 mi NW 13.8 mph - 0.00 in Snow Light Snow
2:31 AM 19.4 °F 6.6 °F 14.0 °F 80% 29.83 in 6.0 mi NW 12.7 mph - 0.00 in   Haze
2:52 AM 19.0 °F 6.1 °F 14.0 °F 81% 29.88 in 6.0 mi NW 12.7 mph - 0.00 in   Haze
3:52 AM 18.0 °F 5.4 °F 12.9 °F 81% 29.91 in 7.0 mi NW 11.5 mph - N/A   Overcast
4:52 AM 18.0 °F 6.1 °F 14.0 °F 84% 29.94 in 6.0 mi WNW 10.4 mph - 0.00 in   Overcast
5:52 AM 19.0 °F 6.8 °F 15.1 °F 85% 29.98 in 6.0 mi WNW 11.5 mph - 0.00 in Snow Light Snow
6:41 AM 19.4 °F 5.0 °F 14.0 °F 80% 29.98 in 5.0 mi WNW 16.1 mph - 0.00 in Snow Light Snow
6:52 AM 19.0 °F 5.6 °F 14.0 °F 81% 30.02 in 5.0 mi WNW 13.8 mph - 0.00 in Snow Light Snow
7:10 AM 17.6 °F 6.4 °F 14.0 °F 86% 30.00 in 6.0 mi WNW 9.2 mph - 0.00 in Snow Light Snow
7:52 AM 16.0 °F 5.3 °F 12.0 °F 84% 30.04 in 5.0 mi West 8.1 mph - 0.00 in   Partly Cloudy
8:52 AM 17.1 °F 5.0 °F 12.0 °F 81% 30.08 in 5.0 mi WNW 10.4 mph - N/A   Haze
9:52 AM 19.9 °F 9.3 °F 14.0 °F 78% 30.09 in 6.0 mi WNW 9.2 mph - N/A   Haze
10:52 AM 23.0 °F 15.8 °F 15.1 °F 72% 30.10 in 8.0 mi NW 5.8 mph - N/A   Partly Cloudy
11:52 AM 25.0 °F 15.5 °F 14.0 °F 63% 30.13 in 9.0 mi NNW 9.2 mph - N/A   Mostly Cloudy
12:52 PM 25.0 °F 19.3 °F 14.0 °F 63% 30.12 in 9.0 mi NW 4.6 mph - N/A   Mostly Cloudy
1:52 PM 27.0 °F 19.5 °F 15.1 °F 61% 30.11 in 10.0 mi WNW 6.9 mph - N/A   Mostly Cloudy
2:52 PM 28.0 °F 20.8 °F 14.0 °F 56% 30.10 in 10.0 mi WSW 6.9 mph - 0.00 in   Mostly Cloudy
3:52 PM 27.0 °F 17.3 °F 14.0 °F 58% 30.11 in 10.0 mi West 10.4 mph - N/A   Mostly Cloudy
4:52 PM 26.1 °F 16.2 °F 15.1 °F 63% 30.12 in 10.0 mi SW 10.4 mph - N/A   Mostly Cloudy
5:52 PM 25.0 °F 15.5 °F 15.1 °F 66% 30.12 in 10.0 mi SW 9.2 mph - N/A   Mostly Cloudy
6:52 PM 24.1 °F 16.0 °F 16.0 °F 71% 30.11 in 10.0 mi South 6.9 mph - N/A   Overcast
7:52 PM 23.0 °F 15.8 °F 16.0 °F 74% 30.11 in 9.0 mi South 5.8 mph - N/A   Overcast
8:52 PM 21.9 °F 15.7 °F 16.0 °F 78% 30.10 in 8.0 mi South 4.6 mph - N/A   Overcast
9:52 PM 21.0 °F 12.4 °F 16.0 °F 81% 30.10 in 8.0 mi South 6.9 mph - N/A   Overcast
10:52 PM 21.0 °F 12.4 °F 17.1 °F 85% 30.09 in 8.0 mi SSE 6.9 mph - N/A   Overcast
11:52 PM 23.0 °F 15.8 °F 19.0 °F 85% 30.06 in 6.0 mi South 5.8 mph - N/A   Overcast